User: anonymous   Login
Location: Unspecified
(0.0000°N, 0.0000°E)
Time: 16:11:08
(UTC+00:00)
Language:

Transit VE-5 - Orbit

View from above orbital plane
View from above orbital plane
View from above satellite
View from above satellite

Ground track
Ground track

The orbit data is extracted from the following two-line orbital elements,

1   959U 64083C   19016.09996491  .00000082  00000-0  93456-4 0  9999
2   959  89.9934 187.5322 0042350  18.0848 111.2068 13.61575948681944
Epoch (UTC): 16 January 2019 02:23:56
Eccentricity: 0.0042350
inclination: 89.9934°
perigee height: 998 km
apogee height: 1061 km
right ascension of ascending node: 187.5322°
argument of perigee: 18.0848°
revolutions per day: 13.61575948
mean anomaly at epoch: 111.2068°
orbit number at epoch: 68194

The dashed part of the orbit path shows where the satellite is in the earth's shadow,  

DLR